Printer-friendly version

IAU Minor Planet Center

Minor Planet Center

MPEC 2001-W65: 2001 WM15

The following Minor Planet Electronic Circular may be linked-to from your own Web pages, but must not otherwise be redistributed electronically.


Read MPEC 2001-W64 Read MPEC 2001-W66


M.P.E.C. 2001-W65                                Issued 2001 Nov. 26, 18:43 UT

     The Minor Planet Electronic Circulars contain information on unusual
         minor planets and routine data on comets.  They are published
   on behalf of Commission 20 of the International Astronomical Union by the
          Minor Planet Center, Smithsonian Astrophysical Observatory,
                          Cambridge, MA 02138, U.S.A.

             Prepared using the Tamkin Foundation Computer Network

                              MPC@CFA.HARVARD.EDU
          URL http://cfa-www.harvard.edu/iau/mpc.html  ISSN 1523-6714

                                   2001 WM15

Observations:
     K01W15M* C2001 11 24.21817 03 30 40.72 +24 31 59.0          19.3        704
     K01W15M  C2001 11 24.23325 03 30 40.92 +24 30 56.7          19.9        704
     K01W15M  C2001 11 24.24903 03 30 40.76 +24 29 51.9          19.6        704
     K01W15M  C2001 11 24.26354 03 30 40.91 +24 28 49.6          19.5        704
     K01W15M  C2001 11 24.27805 03 30 40.94 +24 27 47.0          19.8        704
     K01W15M  C2001 11 25.92894 03 33 50.96 +21 32 06.9                      557
     K01W15M  C2001 11 25.92958 03 33 51.05 +21 32 01.2                      557
     K01W15M  C2001 11 25.93021 03 33 51.10 +21 31 54.6                      557
     K01W15M  C2001 11 25.93149 03 33 51.17 +21 31 42.7          17.9 V      557
     K01W15M  C2001 11 25.93277 03 33 51.28 +21 31 31.1                      557
     K01W15M  C2001 11 25.93342 03 33 51.35 +21 31 24.9                      557
     K01W15M  C2001 11 25.93598 03 33 51.58 +21 31 01.0                      557
     K01W15M  C2001 11 25.93661 03 33 51.63 +21 30 54.6                      557
     K01W15M  C2001 11 25.93790 03 33 51.73 +21 30 42.7                      557
     K01W15M  C2001 11 25.93982 03 33 51.90 +21 30 24.5                      557
     K01W15M  C2001 11 25.94046 03 33 51.95 +21 30 18.3                      557
     K01W15M  C2001 11 25.94109 03 33 51.99 +21 30 12.3                      557
     K01W15M  C2001 11 25.94173 03 33 52.05 +21 30 06.3                      557
     K01W15M  C2001 11 25.94237 03 33 52.09 +21 29 59.9                      557
     K01W15M  C2001 11 25.94365 03 33 52.25 +21 29 47.7                      557
     K01W15M  C2001 11 25.97741 03 33 54.37 +21 24 29.7                      118
     K01W15M  C2001 11 25.98756 03 33 55.37 +21 22 48.6                      118
     K01W15M  C2001 11 25.99278 03 33 55.85 +21 21 56.1          17.9 R      118
     K01W15M  C2001 11 26.24760 03 34 55.61 +20 37 14.0                      658
     K01W15M  C2001 11 26.24846 03 34 55.95 +20 37 04.9                      658
     K01W15M  C2001 11 26.24931 03 34 56.03 +20 36 55.0                      658

Observer details:
118 Modra.  Observers A. Galad, S. Gajdos.  0.6-m f/5.5 reflector + CCD.
557 Ondrejov.  Observer L. Sarounova.  0.65-m f/3.6 reflector + CCD.
658 National Research Council of Canada.  Observer D. D. Balam.  1.82-m
    Plaskett reflector + CCD.
704 Lincoln Laboratory ETS, New Mexico.  Observers M. Blythe, F. Shelly,
    M. Bezpalko, R. Huber, L. Manguso, S. Adams, J. Piscitelli.  Measurers
    J. Stuart, R. Sayer, J. B. Evans, H. Viggh.  1.0-m f/2.15 reflector + CCD.

Orbital elements:
2001 WM15
Epoch 2001 Oct. 18.0 TT = JDT 2452200.5                 MPC
M 325.31333              (2000.0)            P               Q
n   0.40272455     Peri.  250.88602     -0.70468024     -0.70462109
a   1.8160619      Node   244.21291     +0.68078088     -0.63839073
e   0.5811495      Incl.    5.30664     +0.19990787     -0.30978444
P   2.45           H   25.0           G   0.15           U   8
Residuals in seconds of arc
011124 704  0.9-  0.9+    011125 557  0.8-  0.0     011125 557  0.5-  0.3-
011124 704  1.2+  0.1+    011125 557  0.6-  0.1-    011125 557  0.2+  0.3-
011124 704  1.3-  0.7+    011125 557  0.3-  0.2+    011125 118  0.2-  1.7+
011124 704  0.6+  0.4-    011125 557  0.3-  0.2-    011125 118  1.3+  0.6+
011124 704  0.8+  1.0-    011125 557  0.4-  0.1+    011125 118  1.4+  0.1-
011125 557  0.9-  0.2-    011125 557  0.2-  0.1+    011126 658 (2.6-  0.2-)
011125 557  0.4-  0.1+    011125 557  0.3-  0.1-    011126 658  0.8+  0.3+
011125 557  0.4-  0.6-    011125 557  0.4-  0.1-    011126 658  0.6+  0.1-
011125 557  0.9-  0.4-    011125 557  0.3-  0.0

Ephemeris:
2001 WM15                a,e,i = 1.82, 0.58, 5                   q = 0.7607
Date    TT    R. A. (2000) Decl.     Delta      r     Elong.  Phase     V
2001 11 17    03 27.07   +27 55.5    0.108    1.095   171.0     8.1    20.9
2001 11 18    03 27.26   +27 43.9    0.099    1.086   171.3     7.9    20.7
2001 11 19    03 27.49   +27 29.5    0.090    1.077   171.6     7.7    20.5
2001 11 20    03 27.79   +27 11.6    0.081    1.068   171.8     7.6    20.2
2001 11 21    03 28.18   +26 49.0    0.072    1.060   171.9     7.5    20.0
2001 11 22    03 28.69   +26 19.7    0.064    1.051   172.1     7.5    19.7
2001 11 23    03 29.38   +25 40.9    0.055    1.042   172.1     7.5    19.3
2001 11 24    03 30.35   +24 47.1    0.046    1.033   172.2     7.4    18.9
2001 11 25    03 31.79   +23 28.5    0.038    1.024   172.3     7.4    18.5
2001 11 26    03 34.05   +21 23.3    0.029    1.016   172.3     7.5    17.9

2001 11 27.0  03 38.09   +17 34.3    0.021    1.007   171.4     8.4    17.2
2001 11 27.1  03 38.67   +17 00.6    0.020    1.006   171.2     8.7    17.1
2001 11 27.2  03 39.29   +16 24.0    0.019    1.005   170.9     8.9    17.0
2001 11 27.3  03 39.98   +15 44.0    0.018    1.005   170.6     9.3    16.9
2001 11 27.4  03 40.72   +15 00.1    0.017    1.004   170.2     9.7    16.8
2001 11 27.5  03 41.53   +14 11.8    0.016    1.003   169.7    10.2    16.7
2001 11 27.6  03 42.42   +13 18.4    0.016    1.002   169.1    10.7    16.7
2001 11 27.7  03 43.40   +12 19.0    0.015    1.001   168.4    11.4    16.6
2001 11 27.8  03 44.49   +11 12.8    0.014    1.000   167.6    12.2    16.5
2001 11 27.9  03 45.70   +09 58.3    0.013    0.999   166.7    13.1    16.4
2001 11 28.0  03 47.06   +08 34.2    0.012    0.999   165.6    14.3    16.3
2001 11 28.1  03 48.60   +06 58.6    0.012    0.998   164.2    15.6    16.2
2001 11 28.2  03 50.35   +05 09.0    0.011    0.997   162.6    17.2    16.1
2001 11 28.3  03 52.35   +03 02.6    0.010    0.996   160.8    19.0    16.0
2001 11 28.4  03 54.67   +00 35.5    0.0093   0.995   158.5    21.3    15.9
2001 11 28.5  03 57.39   -02 17.0    0.0086   0.994   155.8    24.0    15.8
2001 11 28.6  04 00.62   -05 40.9    0.0079   0.993   152.6    27.2    15.7
2001 11 28.7  04 04.51   -09 43.4    0.0072   0.993   148.7    31.1    15.6
2001 11 28.8  04 09.30   -14 33.4    0.0066   0.992   144.0    35.8    15.5
2001 11 28.9  04 15.33   -20 20.1    0.0060   0.991   138.2    41.5    15.5
2001 11 29.0  04 23.14   -27 11.7    0.0055   0.990   131.4    48.4    15.5
2001 11 29.1  04 33.60   -35 11.0    0.0051   0.989   123.3    56.5    15.6
2001 11 29.2  04 48.31   -44 09.3    0.0049   0.988   114.1    65.7    15.7
2001 11 29.3  05 10.23   -53 40.1    0.0048   0.988   104.1    75.6    16.0
2001 11 29.4  05 45.50   -62 56.4    0.0048   0.987    93.9    85.8    16.4
2001 11 29.5  06 46.8    -70 51.0    0.0050   0.986    84.2    95.5    16.9
2001 11 29.6  08 32.3    -75 48.9    0.0053   0.985    75.5   104.2    17.4
2001 11 29.7  10 42.7    -76 25.2    0.0057   0.984    67.9   111.8    18.0
2001 11 29.8  12 17.3    -73 48.2    0.0063   0.983    61.5   118.2    18.7
2001 11 29.9  13 11.2    -70 11.5    0.0069   0.982    56.2   123.5    19.3
2001 11 30.0  13 42.59   -66 37.7    0.0075   0.982    51.8   127.9    19.8
2001 11 30.1  14 02.46   -63 25.2    0.0082   0.981    48.1   131.6    20.4
2001 11 30.2  14 16.00   -60 36.4    0.0089   0.980    45.0   134.6    20.9
2001 11 30.3  14 25.76   -58 09.4    0.0096   0.979    42.4   137.2    21.4
2001 11 30.4  14 33.11   -56 01.4    0.010    0.978    40.2   139.4    21.8
2001 11 30.5  14 38.83   -54 09.8    0.011    0.977    38.3   141.3    22.2
2001 11 30.6  14 43.39   -52 32.2    0.012    0.977    36.7   142.9    22.6
2001 11 30.7  14 47.11   -51 06.3    0.013    0.976    35.2   144.3    22.9
2001 11 30.8  14 50.20   -49 50.2    0.014    0.975    34.0   145.5    23.3
2001 11 30.9  14 52.82   -48 42.3    0.014    0.974    32.9   146.6    23.6
2001 12 01.0  14 55.06   -47 41.4    0.015    0.973    32.0   147.5    23.8

Brian G. Marsden             (C) Copyright 2001 MPC           M.P.E.C. 2001-W65

Read MPEC 2001-W64 Read MPEC 2001-W66


Our Web policy. Index to the CBAT/MPC/ICQ pages.


Valid HTML 4.01!